Wind_Speed
11 11 11 12 11 10 9 8 7 6 4 3 3 3 3 3 3 3 3 3 3 4 4 3 3 3 3 3 3 3 3 3 3 3 3 4 3 4 3 4 4 4 4 5
12 12 13 14 13 12 10 9 8 7 6 5 4 4 4 4 3 3 4 3 4 5 5 5 4 4 4 4 4 3 3 4 4 5 5 5 5 5 4 5 5 4 5 4
14 15 14 13 12 12 12 11 10 9 7 6 5 5 5 5 4 5 5 5 5 6 6 6 5 5 5 4 4 4 4 4 5 5 6 5 5 5 5 5 5 5 5 4
17 16 15 13 12 12 12 11 11 11 9 8 7 7 8 7 6 6 7 7 7 7 7 7 7 6 5 5 5 5 5 5 5 5 6 5 6 5 5 5 5 6 6 6
17 16 16 15 14 13 13 12 12 12 11 10 10 9 9 9 8 8 8 8 8 8 8 9 8 8 7 7 7 7 6 6 6 7 7 6 5 5 5 6 7 7 7 8
18 17 17 16 15 14 13 12 12 12 12 12 12 11 9 10 10 10 10 9 10 10 10 11 10 9 8 9 9 8 7 7 8 8 8 6 6 6 6 7 8 8 8 8
17 17 16 16 15 15 13 11 11 11 12 13 13 12 11 11 10 10 11 10 11 11 11 11 11 10 10 11 10 10 9 8 9 8 8 8 8 8 8 8 8 9 9 9
18 17 16 16 16 15 14 13 12 11 12 13 14 12 12 12 11 12 12 12 12 12 11 11 11 12 12 13 12 11 10 10 10 10 10 10 10 9 10 10 10 10 10 10
19 18 18 17 17 16 16 15 14 14 13 13 14 14 14 14 13 12 13 13 13 13 13 12 12 13 13 13 14 13 13 12 12 11 11 11 10 11 11 11 11 12 12 12
20 20 19 18 19 18 17 16 16 14 14 14 14 14 15 15 14 14 14 15 15 14 14 14 14 14 14 14 14 14 14 14 13 12 11 11 11 12 12 12 12 13 13 13
22 21 21 21 20 19 19 18 18 16 16 15 15 15 17 16 15 15 15 16 16 15 15 15 15 15 14 14 14 14 14 14 13 13 12 12 13 13 13 14 15 15 15 15
23 22 22 22 21 21 20 20 19 18 19 19 17 17 18 17 16 17 17 17 17 16 16 16 16 16 16 16 16 15 15 15 14 14 14 14 14 15 15 16 16 16 17 17
25 25 24 22 22 23 23 22 21 20 20 20 19 18 19 18 18 17 17 18 18 18 17 17 16 17 17 17 17 16 16 16 16 16 16 16 16 16 17 18 18 17 17 17
25 25 24 23 23 23 24 24 23 22 21 21 21 20 20 19 19 18 18 18 18 17 17 17 17 17 17 18 19 19 18 18 18 17 17 17 18 18 18 19 19 18 19 19
25 25 25 25 25 24 24 24 24 23 22 21 20 20 21 21 20 20 19 20 19 19 19 19 19 19 19 19 20 20 19 19 19 18 18 18 18 19 19 20 21 21 21 22
26 25 25 25 25 26 25 24 24 24 23 23 22 22 22 22 22 21 21 20 21 21 20 19 20 20 20 21 21 21 20 20 20 20 20 19 20 20 21 22 23 23 23 24
26 26 25 25 26 26 26 24 23 23 23 23 22 22 24 23 23 23 23 22 21 22 22 22 21 22 22 22 22 22 22 22 22 22 21 21 22 22 23 24 24 24 24 25
28 27 27 25 26 27 25 24 24 23 23 24 24 24 25 25 24 24 23 23 24 24 23 22 22 22 22 23 23 22 22 22 23 23 22 22 23 23 24 24 25 24 25 25
29 28 27 26 26 27 26 24 23 23 24 24 24 25 25 24 24 24 24 23 24 24 23 23 23 23 23 24 24 23 23 23 24 24 24 23 24 24 25 26 26 25 26 26
30 29 28 28 27 27 26 24 23 24 24 23 24 24 23 23 23 24 24 24 24 24 24 24 24 24 25 25 24 25 25 25 26 26 26 25 25 25 26 26 26 27 27 28
31 30 30 29 29 29 27 26 25 25 25 24 24 23 23 24 24 24 24 24 24 25 25 26 26 26 26 25 25 26 26 26 26 26 26 26 26 27 27 28 29 29 29 29
32 31 31 30 30 30 29 28 27 27 26 26 25 24 24 24 24 24 24 24 25 26 26 27 27 27 27 26 26 27 27 26 27 28 28 28 28 28 29 30 30 30 30 30
34 33 32 32 31 30 30 29 28 28 27 27 26 26 26 25 25 25 25 25 26 27 27 28 29 28 28 28 28 28 27 27 28 28 29 30 30 31 31 31 32 32 31 30
35 34 33 33 32 31 30 30 29 28 28 27 27 27 28 28 27 27 27 27 27 28 28 28 29 30 30 30 30 29 29 29 29 30 31 31 32 33 33 33 33 33 32 31
35 35 34 33 32 31 30 30 29 29 28 27 27 28 29 29 29 28 28 28 28 28 29 29 30 30 31 31 32 32 32 31 32 32 33 33 33 34 34 33 33 32 31 30
35 35 34 34 33 32 31 31 31 30 29 29 28 28 28 28 28 29 28 28 28 29 29 29 29 30 30 31 32 32 32 33 34 34 34 35 34 34 34 33 33 32 30 30
Wind_Direction
208 209 210 211 213 214 219 221 225 235 239 256 276 298 324 342 336 327 335 345 337 326 329 331 329 321 320 320 316 310 304 284 281 280 290 297 285 278 275 281 277 281 282 284
212 215 218 217 220 223 227 230 231 241 251 256 265 280 294 316 318 307 302 304 308 313 314 316 320 318 308 312 313 311 315 306 295 285 286 284 283 285 279 278 276 280 287 292
215 220 221 219 221 224 228 230 234 242 249 256 266 275 285 294 302 301 294 291 296 304 305 307 302 305 302 302 307 305 307 304 302 295 296 291 290 284 283 282 274 279 283 286
218 221 222 222 223 224 230 232 236 241 245 254 259 270 277 281 291 298 296 294 294 300 298 299 295 298 297 294 304 304 303 306 308 311 314 301 294 288 285 278 275 281 283 283
221 223 222 223 227 228 232 235 238 241 245 252 261 267 268 271 278 285 293 293 290 291 288 289 292 293 291 291 294 298 297 299 302 306 311 304 300 297 292 287 281 283 284 285
221 221 224 226 230 232 235 238 243 247 250 254 258 261 260 266 270 276 282 286 285 289 286 284 286 285 283 284 286 287 286 289 295 300 298 292 294 293 291 289 288 287 286 285
225 226 228 230 232 236 238 239 246 250 252 255 259 261 258 263 264 270 276 279 280 282 281 284 278 275 276 277 279 280 276 283 289 294 292 285 286 284 282 285 290 292 290 293
231 233 232 231 232 236 239 237 236 244 251 257 262 262 262 262 266 268 272 276 277 277 279 281 276 271 274 273 272 273 272 277 280 286 288 284 282 282 282 285 291 295 292 292
229 232 234 232 232 233 236 239 240 243 250 256 261 265 268 268 268 269 272 275 276 275 276 277 275 272 273 273 270 269 269 276 274 276 280 284 282 283 284 288 291 294 294 291
229 231 234 234 234 235 236 239 241 241 249 257 265 268 268 270 272 272 272 273 276 277 275 274 272 270 274 274 271 269 269 270 271 272 276 281 280 281 281 283 289 293 293 291
229 232 234 235 235 239 241 243 247 248 250 255 263 266 264 265 268 270 271 273 274 274 274 275 271 269 270 272 275 271 266 266 270 274 278 280 279 277 278 281 285 288 291 291
231 232 235 237 240 241 243 246 249 252 257 259 262 268 266 264 266 270 271 269 270 271 272 273 270 268 267 270 272 272 274 271 274 279 279 280 279 279 280 283 288 287 289 292
232 234 236 239 242 243 246 248 250 253 259 261 262 266 268 266 267 271 270 267 266 266 267 269 268 267 267 267 268 270 273 274 279 282 280 280 281 281 281 284 287 288 289 291
234 235 235 238 244 247 249 250 253 254 257 261 262 259 265 267 266 268 268 267 266 264 265 267 267 265 263 264 266 268 273 277 280 282 282 282 281 282 283 284 285 286 287 288
235 237 238 239 244 246 249 251 254 256 255 257 259 261 263 264 266 268 267 267 267 266 265 266 265 262 262 264 267 269 274 276 278 279 282 284 282 281 283 285 286 288 287 288
235 237 239 242 245 246 248 250 254 256 257 256 256 259 261 264 265 266 265 265 265 264 263 264 263 262 262 265 267 270 273 275 276 276 277 282 285 281 281 283 284 286 288 288
237 239 240 244 247 249 250 252 254 256 256 256 258 260 260 262 263 264 263 261 262 263 262 261 263 264 262 263 266 268 272 274 276 277 278 279 281 282 283 282 283 287 289 288
237 239 241 243 245 247 251 252 255 256 256 257 258 259 261 263 264 264 263 261 262 262 264 263 264 265 264 262 265 269 272 273 274 276 276 277 280 282 284 285 286 287 290 291
237 239 241 243 246 249 250 252 255 257 258 257 258 259 261 264 265 263 263 262 264 263 264 263 263 263 264 265 266 267 269 272 274 276 278 278 280 282 284 285 286 288 289 290
237 238 240 241 243 248 252 252 255 258 258 257 259 261 261 262 263 263 262 263 265 265 264 263 263 262 264 265 268 269 271 272 273 275 276 277 278 281 283 286 287 289 289 289
236 238 240 242 244 248 250 251 254 256 259 259 259 261 261 262 263 263 263 262 262 264 265 264 264 265 264 265 266 270 273 275 275 275 276 278 279 281 284 285 287 289 292 291
237 239 240 242 245 248 249 251 253 256 257 258 259 259 263 263 263 263 264 264 262 263 264 262 263 265 265 265 267 270 272 273 273 273 275 277 281 283 284 286 288 290 290 290
236 238 241 242 245 248 250 253 255 257 259 260 260 261 263 265 264 265 266 267 265 265 264 263 263 265 267 266 268 270 271 272 274 274 275 277 280 282 284 285 286 288 289 288
237 238 241 244 246 249 252 254 256 257 259 261 262 263 265 266 268 267 267 268 268 265 265 266 264 265 266 266 267 269 271 273 275 276 277 278 279 281 283 284 285 286 286 286
238 238 240 244 247 249 250 252 255 258 260 261 262 264 266 267 267 267 267 269 268 265 264 266 265 266 266 265 266 268 270 272 274 275 277 279 280 281 282 284 285 285 284 285
239 241 242 245 247 249 250 252 255 258 260 262 264 266 267 268 267 267 266 266 267 267 266 268 267 266 268 267 267 269 271 273 274 275 276 278 281 283 283 285 286 286 284 285
Height
5907 5910 5912 5913 5915 5916 5917 5918 5919 5919 5918 5918 5919 5919 5918 5917 5916 5916 5915 5914 5913 5912 5911 5910 5909 5908 5907 5906 5906 5905 5904 5903 5902 5901 5901 5900 5899 5899 5898 5898 5898 5897 5897 5896
5906 5908 5910 5911 5912 5914 5915 5916 5917 5917 5917 5917 5918 5918 5917 5917 5916 5915 5914 5914 5913 5911 5911 5910 5909 5908 5907 5906 5905 5905 5904 5903 5902 5901 5900 5899 5898 5898 5897 5897 5896 5896 5896 5895
5904 5906 5907 5908 5910 5912 5913 5914 5915 5916 5916 5916 5917 5918 5917 5916 5915 5914 5914 5913 5912 5911 5910 5909 5908 5907 5906 5906 5905 5904 5903 5902 5901 5899 5898 5897 5897 5896 5896 5896 5895 5895 5895 5894
5900 5902 5904 5906 5908 5910 5911 5912 5913 5913 5914 5915 5916 5917 5916 5915 5914 5913 5912 5912 5911 5910 5909 5908 5907 5906 5905 5905 5904 5903 5902 5901 5900 5898 5897 5896 5895 5895 5895 5894 5894 5894 5893 5893
5897 5899 5901 5903 5905 5907 5908 5909 5910 5911 5912 5913 5914 5915 5916 5913 5912 5912 5911 5910 5909 5909 5908 5907 5906 5905 5904 5904 5903 5902 5901 5900 5899 5898 5896 5895 5894 5894 5893 5893 5892 5892 5892 5891
5894 5896 5898 5900 5902 5903 5905 5907 5908 5909 5910 5912 5912 5912 5914 5912 5911 5910 5909 5908 5907 5907 5906 5905 5904 5903 5903 5902 5901 5900 5900 5899 5898 5897 5895 5895 5894 5893 5892 5892 5891 5890 5890 5889
5891 5893 5895 5897 5899 5900 5902 5905 5907 5908 5909 5910 5909 5909 5910 5909 5908 5907 5907 5906 5905 5904 5903 5903 5902 5901 5901 5900 5899 5899 5898 5897 5896 5895 5894 5893 5892 5892 5891 5890 5889 5888 5888 5887
5889 5891 5892 5894 5896 5897 5899 5902 5905 5907 5908 5907 5905 5906 5907 5905 5905 5904 5904 5903 5902 5902 5901 5900 5899 5899 5898 5898 5897 5896 5896 5895 5894 5893 5892 5892 5891 5890 5889 5888 5887 5886 5885 5885
5886 5888 5889 5890 5892 5894 5895 5897 5900 5902 5902 5904 5903 5903 5902 5902 5902 5901 5901 5900 5899 5899 5898 5897 5896 5896 5895 5895 5894 5894 5893 5892 5892 5891 5890 5889 5889 5888 5887 5886 5885 5884 5883 5882
5881 5883 5885 5886 5888 5890 5892 5893 5895 5897 5898 5900 5901 5900 5900 5898 5898 5898 5898 5897 5896 5895 5895 5894 5893 5893 5893 5892 5891 5891 5890 5889 5889 5888 5888 5887 5886 5885 5885 5884 5883 5882 5881 5880
5876 5879 5881 5882 5884 5886 5888 5889 5891 5893 5894 5896 5897 5899 5895 5894 5894 5894 5894 5893 5892 5892 5891 5891 5890 5890 5889 5889 5888 5887 5887 5886 5886 5886 5885 5884 5883 5883 5882 5881 5880 5879 5878 5877
5870 5874 5876 5878 5880 5881 5883 5885 5887 5889 5889 5890 5892 5895 5890 5890 5890 5889 5889 5889 5888 5888 5887 5887 5886 5886 5886 5886 5885 5884 5884 5883 5883 5883 5882 5881 5880 5880 5879 5878 5876 5875 5874 5873
5865 5868 5871 5874 5876 5877 5877 5879 5881 5883 5884 5885 5887 5890 5885 5885 5885 5885 5884 5884 5884 5883 5883 5883 5882 5882 5882 5882 5882 5881 5881 5880 5880 5879 5878 5878 5877 5876 5875 5874 5873 5871 5870 5869
5859 5863 5866 5870 5871 5872 5872 5874 5875 5877 5879 5880 5881 5882 5880 5880 5880 5880 5879 5879 5879 5879 5879 5879 5878 5878 5878 5878 5878 5877 5877 5876 5876 5875 5874 5874 5873 5871 5870 5869 5868 5867 5866 5865
5853 5856 5859 5862 5863 5865 5866 5868 5869 5871 5872 5874 5875 5875 5875 5874 5874 5874 5874 5874 5874 5874 5874 5874 5874 5873 5873 5873 5873 5873 5872 5872 5871 5871 5870 5869 5868 5867 5866 5865 5863 5862 5861 5859
5847 5850 5853 5855 5857 5858 5860 5862 5863 5864 5865 5866 5867 5868 5868 5868 5868 5868 5868 5868 5868 5868 5868 5868 5868 5868 5868 5869 5869 5868 5868 5867 5866 5865 5864 5863 5863 5862 5861 5859 5858 5856 5855 5853
5841 5844 5846 5849 5850 5851 5853 5856 5856 5858 5859 5860 5861 5862 5861 5861 5861 5862 5862 5862 5862 5862 5862 5863 5863 5863 5863 5863 5863 5863 5862 5862 5860 5859 5859 5858 5857 5856 5855 5853 5852 5850 5848 5847
5834 5837 5840 5843 5844 5845 5850 5849 5850 5851 5852 5853 5854 5854 5854 5854 5855 5855 5855 5855 5855 5856 5856 5856 5857 5857 5857 5857 5857 5856 5856 5856 5855 5853 5853 5852 5851 5850 5848 5847 5846 5844 5842 5840
5827 5830 5833 5836 5837 5839 5841 5842 5844 5845 5845 5846 5846 5847 5847 5847 5848 5848 5848 5848 5849 5849 5850 5850 5851 5851 5851 5851 5850 5850 5850 5849 5848 5847 5847 5846 5845 5843 5842 5840 5839 5837 5835 5833
5819 5822 5826 5828 5830 5833 5835 5836 5837 5839 5838 5839 5839 5840 5840 5841 5841 5842 5842 5842 5842 5843 5843 5844 5844 5844 5844 5844 5844 5844 5843 5842 5841 5841 5840 5839 5838 5837 5835 5834 5832 5830 5828 5826
5812 5815 5817 5820 5822 5825 5826 5828 5830 5832 5832 5832 5832 5833 5833 5834 5834 5835 5835 5835 5835 5836 5836 5837 5837 5837 5837 5837 5837 5837 5836 5835 5834 5834 5833 5832 5831 5829 5828 5827 5825 5823 5821 5819
5804 5807 5809 5812 5815 5818 5818 5820 5822 5823 5824 5824 5825 5825 5826 5826 5827 5827 5827 5828 5828 5829 5829 5829 5829 5829 5830 5830 5830 5829 5828 5828 5827 5826 5825 5824 5823 5822 5820 5819 5817 5815 5813 5811
5795 5799 5801 5805 5808 5808 5810 5812 5814 5815 5816 5817 5817 5818 5819 5819 5819 5819 5820 5820 5820 5821 5821 5821 5821 5822 5822 5822 5822 5821 5821 5820 5819 5818 5817 5817 5816 5814 5812 5811 5809 5807 5805 5802
5786 5790 5793 5795 5798 5800 5802 5804 5805 5807 5808 5809 5810 5810 5811 5811 5811 5811 5812 5812 5812 5812 5813 5812 5813 5814 5814 5814 5813 5813 5812 5812 5811 5810 5809 5808 5807 5806 5804 5802 5800 5798 5796 5794
5778 5781 5784 5786 5789 5792 5794 5795 5797 5798 5800 5801 5802 5802 5802 5802 5802 5803 5803 5803 5803 5804 5804 5804 5804 5805 5805 5805 5804 5804 5803 5802 5802 5801 5800 5799 5797 5796 5795 5793 5791 5788 5787 5785
5769 5772 5776 5778 5781 5783 5785 5787 5789 5790 5791 5792 5793 5794 5794 5794 5794 5794 5794 5794 5795 5795 5795 5795 5795 5795 5795 5795 5795 5794 5794 5793 5793 5792 5791 5790 5788 5787 5785 5784 5782 5780 5778 5775